Lapse_Rate
6.8 6.2 6.1 5.7 5.6 6.2 6.3 6.3 6.1 5.9 6.0 6.1 5.8 5.7 5.9 6.0 6.0 5.8 5.8 5.7 5.6 5.7 5.7 5.6 5.1 5.8 5.7 5.7 5.3 5.1 4.4 4.8 4.5 4.0 4.1 4.3 4.4 4.6 4.7 4.8 5.0 5.2 5.1
6.9 6.8 5.7 5.8 5.7 6.3 6.3 6.2 6.2 6.0 6.0 6.1 5.8 5.9 5.9 5.9 5.9 5.9 5.9 5.8 5.7 5.8 5.7 5.7 5.3 5.5 5.5 5.5 5.4 5.4 5.2 5.0 5.0 4.5 4.7 4.7 4.7 4.6 4.6 4.6 4.7 5.0 4.9
7.8 7.2 6.4 6.4 5.6 6.3 6.8 6.7 6.3 6.2 6.0 5.9 5.8 5.9 5.9 5.9 5.9 6.1 6.1 6.0 5.9 5.9 5.8 5.5 5.3 5.3 5.4 5.5 5.3 5.2 5.3 5.2 5.3 4.9 4.7 4.8 4.6 4.6 4.8 4.8 4.9 4.7 4.8
8.1 7.5 7.1 6.7 6.5 6.6 6.6 6.5 6.3 6.2 5.9 5.8 5.9 6.0 6.1 6.2 6.2 6.1 6.0 6.0 6.0 5.9 5.9 5.7 5.5 5.4 5.7 5.8 5.6 5.4 5.3 5.2 5.2 5.3 5.4 5.1 4.9 5.2 5.2 5.1 5.1 5.0 5.0
8.3 8.3 7.3 7.4 7.2 6.1 6.4 6.5 6.4 6.1 6.0 5.8 5.8 6.0 6.0 6.1 6.2 6.0 5.9 6.2 6.0 6.0 6.0 6.0 5.8 5.8 5.8 5.8 5.6 5.9 5.9 5.9 6.0 6.3 6.0 5.6 5.1 5.0 4.8 5.0 5.2 5.4 5.0
8.6 8.5 7.4 7.0 7.3 6.7 6.4 6.3 6.3 6.1 6.0 6.0 5.9 5.9 6.0 6.2 6.2 6.1 6.1 6.3 6.2 6.2 6.1 6.1 6.0 5.9 5.7 5.7 5.6 5.9 6.0 6.2 6.1 6.2 6.3 6.1 5.8 5.6 5.5 5.8 5.6 5.7 5.9
8.6 8.9 8.0 7.4 7.2 6.8 6.7 6.5 6.5 6.4 6.4 6.3 6.1 6.0 6.1 6.3 6.1 6.1 6.2 6.3 6.2 6.3 6.2 6.0 6.0 6.0 5.9 5.9 5.7 5.8 6.0 6.3 6.3 6.3 6.3 6.4 6.4 6.2 6.2 6.4 6.4 6.3 6.6
8.5 8.7 9.0 8.2 7.7 7.3 7.0 6.7 6.6 6.7 6.6 6.6 6.3 6.1 6.2 6.2 6.2 6.2 6.4 6.4 6.4 6.2 6.0 6.1 6.1 6.2 6.2 6.1 5.9 5.9 6.0 6.2 6.4 6.4 6.3 6.5 6.5 6.4 6.5 6.6 6.5 6.6 6.5
8.6 8.7 9.0 8.5 7.9 7.6 7.4 7.1 6.8 6.8 6.8 6.7 6.5 6.3 6.3 6.4 6.4 6.4 6.5 6.5 6.4 6.3 6.2 6.2 6.3 6.3 6.2 6.1 6.0 6.0 6.1 6.2 6.2 6.3 6.4 6.5 6.6 6.8 7.0 6.9 6.9 6.9 6.9
8.6 9.1 8.8 8.6 8.6 8.1 7.7 7.2 6.9 6.9 7.0 6.9 6.7 6.7 6.8 6.4 6.3 6.3 6.4 6.5 6.4 6.3 6.3 6.4 6.4 6.4 6.3 6.3 6.1 5.9 6.0 6.2 6.4 6.4 6.5 6.5 6.4 6.7 7.3 7.1 7.1 7.2 7.1
8.1 8.8 9.1 8.9 9.1 8.2 7.8 7.3 7.0 6.7 6.9 6.7 6.8 6.7 6.8 6.7 6.4 6.4 6.3 6.2 6.3 6.5 6.4 6.4 6.5 6.4 6.3 6.2 6.2 6.2 6.2 6.6 6.7 6.7 6.6 6.6 6.6 7.0 7.1 7.1 7.0 7.1 7.2
8.7 8.6 9.2 9.2 8.9 8.3 7.9 7.6 7.1 6.8 6.9 7.0 7.1 7.0 6.9 6.7 6.6 6.5 6.4 6.3 6.3 6.6 6.8 6.7 6.7 6.6 6.5 6.7 6.8 6.7 6.7 6.7 6.8 6.9 6.9 6.9 7.0 7.1 7.1 7.2 7.3 7.1 7.2
9.0 8.6 9.1 9.2 8.9 8.8 8.1 7.7 7.3 6.9 6.9 7.1 7.2 7.1 7.0 6.9 6.7 6.6 6.4 6.4 6.4 6.5 6.4 6.3 6.6 6.8 7.0 7.1 7.0 6.8 6.7 7.0 7.2 7.2 7.1 7.0 7.0 7.2 7.1 7.1 7.3 7.2 7.1
9.3 9.0 9.0 9.3 8.8 9.0 8.4 8.0 7.6 7.1 6.8 7.0 7.3 7.3 7.2 7.0 6.8 6.7 6.7 6.5 6.4 6.4 6.3 6.4 6.6 7.0 7.0 6.9 6.7 6.6 6.7 6.7 6.8 7.0 7.2 7.0 6.9 6.9 6.9 7.0 7.2 7.2 7.3
9.5 9.3 9.1 9.0 8.9 8.7 9.0 8.3 8.0 7.5 7.1 7.3 7.4 7.5 7.4 7.2 6.9 7.0 7.0 6.9 6.7 6.5 6.7 6.9 7.0 7.1 7.2 7.2 7.1 7.0 6.8 6.8 6.9 7.0 7.0 7.2 7.4 7.2 7.1 7.0 7.1 7.1 7.2
9.4 9.2 9.1 9.0 8.8 8.6 9.0 8.9 8.3 8.1 7.7 7.6 7.9 7.7 7.7 7.7 7.8 7.6 7.4 7.3 7.1 7.1 7.2 7.6 7.7 7.9 7.9 7.9 7.7 7.6 7.4 7.2 7.1 7.3 7.4 7.3 7.4 7.5 7.5 7.4 7.1 7.1 7.2
9.1 9.0 8.8 8.9 8.9 8.7 8.8 9.2 8.7 8.5 8.3 8.3 8.1 8.0 8.1 8.1 8.0 7.9 7.7 7.7 7.7 7.7 7.9 8.0 8.1 8.3 8.3 8.2 8.1 8.1 7.9 7.8 7.6 7.5 7.5 7.8 7.9 7.9 7.9 7.8 7.8 7.7 7.7
8.7 8.6 8.7 8.4 8.8 9.0 8.7 8.7 8.8 8.6 8.4 8.9 8.7 8.5 8.5 8.4 8.2 8.2 8.1 8.1 8.1 8.1 8.1 8.3 8.3 8.4 8.6 8.5 8.3 8.0 7.9 7.8 7.7 7.8 7.6 7.7 7.9 7.9 7.9 7.9 7.9 7.9 8.2
8.0 8.1 8.0 7.9 8.0 8.1 8.2 8.4 8.3 8.6 8.5 8.6 8.8 8.8 8.7 8.7 8.5 8.5 8.5 8.4 8.4 8.4 8.5 8.5 8.4 8.5 8.8 8.5 8.4 7.9 7.6 7.7 7.7 8.0 8.0 8.0 8.1 8.1 7.9 7.7 7.7 7.8 8.0
7.7 7.2 6.9 7.1 7.5 7.7 8.0 8.1 8.3 8.1 8.5 8.9 8.8 8.8 8.9 8.9 8.9 8.8 8.7 8.4 8.4 8.4 8.5 8.6 8.7 8.6 8.6 8.3 8.2 8.0 7.7 7.7 7.7 7.8 8.2 8.4 8.6 8.6 8.3 8.2 8.1 8.4 8.8
7.7 7.6 7.4 7.3 7.3 7.4 7.6 7.9 7.9 8.3 8.3 8.3 8.4 8.4 8.7 9.1 9.1 9.0 8.9 8.8 8.7 8.7 8.7 8.7 8.6 8.7 8.7 8.7 8.5 8.2 8.0 8.2 7.8 8.1 8.4 8.5 8.5 8.6 8.6 8.5 8.6 8.8 8.5
8.2 8.1 8.0 7.9 7.6 7.5 7.6 7.8 7.9 8.1 8.4 8.4 8.3 8.2 8.7 9.0 8.9 8.9 8.8 8.9 8.9 8.9 9.0 9.0 8.9 8.9 8.8 8.7 8.6 8.4 8.3 8.3 8.1 8.3 8.4 8.4 8.3 8.1 8.1 8.3 8.5 8.7 8.7
8.0 8.2 8.3 8.5 8.3 7.9 7.6 7.5 7.6 7.5 7.7 7.8 8.0 7.9 8.0 8.2 8.4 8.4 8.6 8.6 8.8 9.0 9.1 9.1 9.1 9.1 8.9 8.9 8.8 8.8 8.5 8.2 7.9 7.8 7.8 7.9 7.9 7.8 7.9 8.1 8.0 8.1 8.1
7.9 7.9 8.2 8.2 7.9 7.9 7.8 7.6 7.2 7.2 7.3 7.5 7.7 7.8 7.9 8.1 8.2 8.2 8.2 8.3 8.5 8.8 8.9 9.1 9.1 9.0 9.0 8.8 8.6 8.5 8.5 8.1 7.8 7.9 7.7 7.6 7.8 7.5 7.3 7.5 7.5 7.6 7.7
7.4 7.6 7.8 7.7 7.6 7.6 7.6 7.6 7.6 7.4 7.2 7.1 7.2 7.5 7.5 7.6 7.7 7.7 7.9 8.0 8.1 8.1 8.1 8.2 8.4 8.5 8.6 8.4 8.5 8.2 8.2 8.1 7.7 7.5 7.5 7.5 7.5 7.3 7.4 7.5 7.6 7.8 8.0
6.2 6.7 6.9 6.9 7.1 7.3 7.4 7.4 7.3 7.2 7.1 6.9 6.9 7.0 7.2 7.3 7.3 7.2 7.5 7.6 7.6 7.7 7.7 7.8 7.7 7.8 7.9 7.8 7.7 7.8 7.8 7.7 7.6 7.5 7.4 7.4 7.4 7.4 7.5 7.6 7.9 8.0 7.9
Wind_Speed
24 20 18 18 15 15 19 20 18 14 10 5 4 3 4 2 3 6 14 11 14 14 11 6 4 3 3 3 3 2 2 3 1 3 3 3 2 5 3 9 7 7 9
23 22 21 19 18 16 19 20 19 16 12 9 7 3 3 2 2 5 10 16 14 15 11 8 4 4 2 3 2 3 1 1 0 3 3 2 3 4 1 3 5 5 10
27 26 24 23 20 17 21 20 19 18 15 12 5 3 3 2 1 2 3 6 14 15 13 11 6 4 3 4 3 3 4 2 1 1 4 2 2 1 2 2 3 5 3
24 26 26 26 24 20 20 20 19 18 15 13 11 10 9 8 5 4 3 5 14 13 15 13 10 6 5 5 4 3 2 3 3 2 2 2 4 3 0 2 1 2 4
26 24 28 29 28 22 20 20 19 19 16 16 15 12 10 7 4 3 6 6 8 14 14 14 11 6 4 5 6 5 4 3 3 2 1 2 2 2 3 3 2 2 3
24 26 27 22 23 22 21 20 19 19 18 17 16 16 14 9 7 5 6 5 5 7 9 12 10 9 6 6 5 6 6 5 3 3 3 3 3 3 2 2 3 4 4
23 24 24 24 22 24 24 21 21 19 19 19 17 17 14 12 11 8 6 6 5 3 7 6 7 5 7 8 7 6 6 5 4 5 3 3 3 3 3 3 3 3 3
24 26 27 26 23 24 24 24 23 21 20 20 19 16 14 10 9 8 5 7 8 7 9 10 9 10 11 9 8 4 4 5 4 6 4 3 3 3 3 4 4 0 1
27 27 25 26 24 22 25 25 24 22 21 21 16 15 14 14 12 10 8 5 6 7 9 10 11 9 9 9 6 5 6 5 5 6 6 4 3 3 3 3 3 4 3
29 26 24 26 24 22 24 24 24 24 22 19 17 15 15 14 13 10 9 8 8 8 10 11 12 10 10 8 8 5 5 6 5 4 6 5 3 5 4 3 2 2 4
29 28 26 27 26 23 22 22 21 22 19 19 18 18 16 15 11 10 10 11 7 9 9 11 12 12 11 10 7 8 8 10 8 6 7 7 6 6 4 3 3 4 3
31 27 26 26 23 23 21 22 20 20 19 20 19 17 15 14 13 12 11 11 12 8 11 9 11 11 11 12 13 12 11 11 10 10 8 11 7 8 6 4 6 5 4
29 26 24 23 23 22 21 21 20 21 20 18 17 16 16 15 15 16 14 13 12 12 7 9 11 13 15 14 14 12 11 11 12 11 12 13 10 10 5 6 6 4 4
27 25 23 23 22 22 21 20 20 19 19 18 18 18 17 17 16 16 16 14 13 11 9 11 13 13 13 15 15 14 13 12 12 11 12 12 11 13 9 7 8 6 5
25 26 25 22 21 20 20 18 18 19 20 19 19 19 18 17 17 16 16 16 14 12 13 12 12 13 13 11 15 15 15 14 14 12 13 13 15 19 16 10 10 7 7
25 27 25 25 22 22 21 19 19 20 20 20 20 19 18 18 17 17 16 16 16 15 13 14 13 13 12 16 19 17 15 16 15 14 13 14 15 16 19 19 17 14 12
14 23 25 24 23 22 21 19 20 18 19 19 17 17 17 17 17 16 16 16 17 16 17 16 16 16 15 17 20 21 16 15 16 16 14 13 12 15 15 19 20 19 22
12 9 7 8 8 9 14 13 13 16 17 17 17 16 16 16 16 16 16 16 14 16 16 17 17 16 15 16 19 20 20 16 16 17 17 17 17 16 16 16 14 18 20
6 7 8 6 6 11 15 17 16 17 16 17 17 17 17 17 16 16 17 16 15 15 16 16 17 18 17 16 17 14 14 16 19 16 16 17 18 18 17 15 16 16 19
6 7 6 7 9 4 8 13 16 16 18 18 17 15 16 18 18 17 17 15 15 15 13 15 16 18 17 15 19 17 12 16 13 16 18 20 20 14 16 16 16 18 21
14 8 9 8 5 5 7 7 8 16 18 16 15 14 16 18 17 17 15 14 14 14 14 15 14 15 14 14 18 20 14 14 12 13 14 13 16 19 17 21 19 23 18
17 16 12 12 9 8 7 7 5 3 5 6 8 12 14 13 12 15 13 14 14 14 14 13 11 10 10 12 15 20 22 17 14 15 13 13 15 18 21 18 24 23 18
13 12 11 9 10 13 11 10 7 7 4 6 8 9 7 8 9 12 12 10 12 11 11 10 10 8 6 6 15 20 21 22 14 14 15 15 15 17 15 20 21 20 14
12 11 12 11 8 7 8 6 6 7 7 4 3 6 7 8 7 8 9 9 9 10 9 9 9 7 6 7 7 8 9 14 8 12 11 10 10 10 11 8 9 10 12
11 10 9 9 9 4 7 5 6 7 6 7 6 5 5 7 6 4 1 6 9 10 9 8 9 8 8 6 3 5 5 5 8 5 4 6 7 8 8 9 10 10 8
8 7 8 8 8 7 5 6 6 5 4 5 5 5 3 4 6 7 5 14 13 9 4 5 6 2 7 8 7 7 5 5 6 3 3 4 4 6 7 8 9 10 12
Wind_Direction
196 206 204 203 197 177 179 185 180 181 166 164 157 166 191 218 146 191 193 193 177 165 160 175 186 134 172 189 165 122 73 41 84 91 343 66 138 195 179 162 182 176 184
194 200 206 204 202 180 183 185 185 178 179 178 180 158 160 193 188 172 200 190 186 174 170 177 186 172 163 183 180 128 107 69 328 117 80 20 354 25 319 157 180 191 180
189 194 200 205 203 181 185 185 185 183 184 180 156 107 85 41 217 206 190 183 187 182 182 188 176 190 178 183 198 158 130 148 305 149 141 94 201 49 350 304 227 181 190
187 192 194 201 204 191 187 182 184 183 183 174 176 177 190 197 212 196 171 183 184 191 189 186 182 186 194 193 188 173 156 144 176 358 76 98 140 141 7 340 308 239 218
191 190 191 195 198 192 185 183 182 182 178 179 180 183 190 198 185 196 181 184 189 191 194 188 182 186 190 208 175 169 178 181 152 158 138 73 69 102 128 182 264 335 242
194 195 189 183 186 185 183 181 178 183 180 182 183 186 189 186 192 190 195 181 192 197 196 192 190 193 192 200 185 191 186 186 158 177 167 164 160 184 140 140 219 195 242
195 195 190 186 180 182 183 181 181 181 184 185 186 188 188 191 196 194 183 177 180 175 202 187 194 192 194 198 187 180 186 189 174 177 191 181 200 154 148 143 206 210 243
198 195 192 192 183 183 184 183 185 185 184 188 190 187 185 196 202 199 187 193 194 194 189 198 199 203 190 195 193 181 185 179 196 194 193 181 204 174 182 168 146 45 286
197 199 193 194 192 184 186 185 186 191 189 189 188 187 191 199 203 204 199 186 180 189 192 194 196 197 190 189 184 192 197 181 193 210 205 202 211 211 205 205 170 155 199
200 199 194 194 193 192 188 185 188 189 190 190 192 195 193 195 202 197 194 191 187 194 190 194 196 197 199 189 181 193 192 192 201 205 211 217 215 225 221 207 199 190 165
194 198 192 193 194 191 186 186 187 190 190 190 192 198 201 201 190 198 202 207 195 192 197 196 196 201 201 196 184 198 200 202 203 199 205 226 213 230 227 204 205 203 167
193 193 189 188 188 190 184 187 186 187 190 193 193 196 195 195 198 199 204 205 211 202 197 194 192 194 199 200 201 202 203 206 207 205 201 222 223 236 223 206 220 212 210
190 192 185 185 186 190 187 186 185 190 191 191 193 192 195 194 200 205 206 207 210 213 189 179 187 195 200 201 209 209 208 207 212 206 207 219 213 230 226 215 221 212 209
177 183 184 185 185 189 187 187 188 188 187 189 191 194 195 196 198 204 208 205 208 208 195 195 196 200 199 203 205 207 211 217 217 213 213 218 213 222 218 217 221 214 215
175 179 182 181 184 187 189 187 187 185 185 188 193 197 198 198 199 199 205 209 206 207 210 204 208 202 200 202 206 209 212 216 222 218 219 221 219 216 213 217 224 202 220
176 179 180 179 181 186 188 184 185 188 186 193 195 196 195 200 200 201 201 204 208 211 207 213 207 208 212 203 201 206 215 218 221 226 225 230 224 222 216 215 219 205 214
176 179 180 181 182 185 185 185 187 183 191 196 197 197 197 198 202 202 202 202 207 207 215 217 219 218 213 204 203 205 216 219 222 225 227 229 230 221 223 224 222 216 215
80 96 125 132 139 159 181 184 178 191 196 195 195 196 196 200 201 200 204 209 205 208 212 218 221 222 226 202 204 205 219 227 228 229 229 230 232 227 222 229 227 230 234
67 85 92 93 122 165 171 180 187 190 195 204 200 194 195 197 200 201 204 207 209 212 215 218 219 222 226 206 200 196 222 232 235 235 234 234 237 230 210 223 231 234 239
25 60 80 100 85 74 161 183 190 190 201 204 204 195 194 198 200 203 204 207 209 213 217 222 222 221 224 205 198 196 221 233 235 238 241 231 235 219 198 219 231 241 244
24 29 55 62 61 80 105 160 191 204 207 203 199 197 198 201 202 204 206 206 209 215 219 224 225 224 216 217 194 196 215 231 235 240 245 245 222 221 211 211 229 239 252
19 16 43 44 34 46 75 89 124 265 165 172 189 200 197 198 202 204 203 207 207 212 219 224 229 228 223 205 195 199 210 220 231 239 244 245 227 217 217 215 231 238 238
20 15 22 34 48 54 60 53 354 354 66 174 189 190 179 186 185 191 197 200 205 211 217 221 228 230 212 203 198 201 210 223 231 238 245 246 237 230 229 230 231 230 239
17 13 19 17 12 62 67 63 32 10 13 335 227 206 190 190 183 192 192 193 197 206 215 217 225 225 212 205 204 209 216 233 237 259 259 263 269 269 260 260 241 240 243
3 7 4 4 351 34 80 70 31 19 2 346 310 261 212 190 183 94 158 198 202 198 198 207 210 216 226 212 169 171 187 196 217 237 249 259 260 262 258 253 248 245 239
340 358 349 343 338 333 20 33 42 42 350 325 327 286 222 180 161 143 108 44 33 25 117 166 156 69 89 118 127 131 113 122 142 159 217 244 245 253 264 265 261 250 243